Houston Hull, TX

11:19 PM CST on December 12, 2019 (GMT -0600)
Sugar Land Municipal-Hull

Weather History for KSGR - October, 2019

Change the Weather History Date:

Monday, October 7, 2019

  Actual Average Record
Temperature  
Mean Temperature 79 °F -  
Max Temperature 86 °F 85 °F 95 °F (1951)
Min Temperature 70 °F 62 °F 48 °F (1964)
Cooling Degree Days 14    
Growing Degree Days 29 (Base 50)    
Moisture  
Dew Point 71 °F    
Average Humidity 80    
Maximum Humidity 97    
Minimum Humidity 61    
Precipitation  
Precipitation 0.00 in - - ()
Sea Level Pressure  
Sea Level Pressure 30.03 in    
Wind  
Wind Speed 8 mph (North)    
Max Wind Speed 16 mph    
Max Gust Speed 23 mph    
Visibility 10 miles    
Events      
Averages and records for this station are not official NWS values.
T = Trace of Precipitation, MM = Missing Value Source: NWS Daily Summary

Daily Weather History Graph

Daily Weather History Graph

Search for Another Location

Airport or City:

Astronomy

Oct. 07, 2019 Rise Set
Actual Time 7:19 AM CDT 7:01 PM CDT
Civil Twilight 6:55 AM CDT 7:25 PM CDT
Nautical Twilight 6:27 AM CDT 7:52 PM CDT
Astronomical Twilight 6:00 AM CDT 8:20 PM CDT
Moon 3:53 PM CDT (10/7) 1:45 AM CDT (10/7)
Length of Visible Light 12h 29m
Length of Day
11h 42m
Waxing Gibbous, 69% of the Moon is Illuminated
Oct 7
Waxing Gibbous
Oct 13
Full
Oct 21
Last Quarter
Oct 27
New
Nov 4
First Quarter

Hourly Weather History & Observations

Time (CDT) Temp. Heat Index Dew Point Humidity Pressure Visibility Wind Dir Wind Speed Gust Speed Precip Events Conditions
12:53 AM 78.1 °F - 73.9 °F 87% 29.97 in 10.0 mi SE 3.5 mph - N/A   Clear
1:53 AM 73.9 °F - 72.0 °F 93% 29.97 in 10.0 mi Calm Calm - N/A   Clear
2:53 AM 75.0 °F - 73.9 °F 96% 29.99 in 10.0 mi NNW 5.8 mph - N/A   Clear
3:53 AM 73.9 °F - 73.0 °F 97% 29.99 in 10.0 mi NNW 3.5 mph - N/A   Clear
4:53 AM 73.9 °F - 73.0 °F 97% 29.99 in 10.0 mi NNW 5.8 mph - N/A   Clear
5:53 AM 73.9 °F - 72.0 °F 93% 29.99 in 10.0 mi North 4.6 mph - N/A   Clear
6:53 AM 73.0 °F - 72.0 °F 96% 30.01 in 10.0 mi North 6.9 mph - N/A   Clear
7:53 AM 73.9 °F - 72.0 °F 93% 30.02 in 10.0 mi NNW 9.2 mph - N/A   Mostly Cloudy
8:53 AM 78.1 °F - 73.0 °F 84% 30.04 in 10.0 mi North 8.1 mph - N/A   Mostly Cloudy
9:53 AM 80.1 °F 84.2 °F 73.0 °F 79% 30.05 in 10.0 mi NNW 9.2 mph - N/A   Clear
10:53 AM 82.9 °F 88.8 °F 73.0 °F 72% 30.06 in 10.0 mi NNW 12.7 mph - N/A   Clear
11:53 AM 82.9 °F 89.4 °F 73.9 °F 74% 30.06 in 10.0 mi NNW 12.7 mph - N/A   Partly Cloudy
12:53 PM 82.9 °F 88.0 °F 72.0 °F 69% 30.05 in 10.0 mi North 16.1 mph - N/A   Partly Cloudy
1:53 PM 84.0 °F 89.6 °F 72.0 °F 67% 30.03 in 10.0 mi North 11.5 mph - N/A   Clear
2:53 PM 84.9 °F 90.1 °F 71.1 °F 63% 30.01 in 10.0 mi North 9.2 mph - N/A   Clear
3:53 PM 86.0 °F 91.5 °F 71.1 °F 61% 30.00 in 10.0 mi North 12.7 mph - N/A   Partly Cloudy
4:53 PM 84.0 °F 88.4 °F 70.0 °F 63% 30.00 in 10.0 mi NNE 12.7 mph - N/A   Scattered Clouds
5:53 PM 81.0 °F 84.4 °F 70.0 °F 69% 30.01 in 10.0 mi NNE 13.8 mph - N/A   Mostly Cloudy
6:27 PM 80.1 °F 83.2 °F 70.0 °F 71% 30.01 in 10.0 mi NNE 11.5 mph - N/A   Overcast
6:53 PM 77.0 °F - 69.1 °F 76% 30.02 in 10.0 mi North 10.4 mph - N/A   Overcast
7:53 PM 75.0 °F - 66.9 °F 76% 30.04 in 10.0 mi North 11.5 mph - N/A   Overcast
8:53 PM 73.0 °F - 66.9 °F 81% 30.05 in 10.0 mi North 12.7 mph - N/A   Overcast
9:53 PM 73.0 °F - 66.9 °F 81% 30.06 in 10.0 mi North 13.8 mph - N/A   Overcast
10:34 PM 72.0 °F - 66.9 °F 84% 30.08 in 10.0 mi North 16.1 mph 23.0 mph N/A   Overcast
10:53 PM 72.0 °F - 66.0 °F 81% 30.09 in 10.0 mi NNE 16.1 mph - N/A   Overcast
11:03 PM 72.0 °F - 66.0 °F 81% 30.08 in 10.0 mi NNE 15.0 mph - N/A   Overcast
11:53 PM 70.0 °F - 64.9 °F 84% 30.09 in 10.0 mi NE 13.8 mph - N/A   Overcast